Date String (YYYY-MM-DD hh:mm:ss) UTC,Instrument flags,Ambient pressure (hPa),Sample flow (lpm),Bypass flow (lpm),Sample temperature (°C),Ambient temperature (°C),ASC tube jacket temperature (°C),LED temperature (°C),Box temperature (°C),Sample RH (%),Span deviation,Mass concentration (μg/m³),Mass concentration (μg/m³),Mass concentration (μg/m³)
DateTimeUTC,F1_M11,P_M11,Q1_M11,Q2_M11,T1_M11,T2_M11,T3_M11,T4_M11,T5_M11,U1_M11,ZSPAN_M11,X0_M11,X2_M11,X1_M11
2022-07-31 21:00:00,,0831.0,4.99,0.00,29.1,26.9,00.0,37.8,30.8,28.1,0000.0,0009.06,0006.00,0005.62
2022-07-31 21:01:00,,0831.0,5.02,0.00,29.0,27.0,00.0,37.8,30.8,28.5,0000.0,0009.04,0006.01,0005.62
2022-07-31 21:02:00,,0831.0,4.99,0.00,29.0,27.2,00.0,37.8,30.8,28.3,0000.0,0009.18,0006.03,0005.62
2022-07-31 21:03:00,,0831.0,4.99,0.00,29.0,27.4,00.0,37.8,30.9,27.8,0000.0,0009.39,0006.01,0005.61
2022-07-31 21:04:00,,0831.1,4.99,0.00,29.1,27.6,00.0,37.8,31.0,27.7,0000.0,0009.36,0005.99,0005.58
2022-07-31 21:05:00,,0831.0,5.01,0.00,29.1,27.7,00.0,37.8,31.0,27.5,0000.0,0009.28,0005.94,0005.54
2022-07-31 21:06:00,,0831.0,5.00,0.00,29.1,27.9,00.0,37.9,31.1,27.5,0000.0,0009.19,0005.86,0005.49
2022-07-31 21:07:00,,0831.0,5.00,0.00,29.2,28.0,00.0,37.9,31.2,27.6,0000.0,0009.10,0005.81,0005.43
2022-07-31 21:08:00,,0831.0,5.01,0.00,29.2,28.2,00.0,37.9,31.2,27.5,0000.0,0008.79,0005.73,0005.38
2022-07-31 21:09:00,,0831.0,4.99,0.00,29.3,28.3,00.0,37.9,31.3,27.0,0000.0,0008.69,0005.68,0005.33
2022-07-31 21:10:00,,0831.0,5.00,0.00,29.3,28.0,00.0,37.9,31.2,27.1,0000.0,0008.70,0005.61,0005.27
2022-07-31 21:11:00,,0831.0,5.01,0.00,29.2,27.3,00.0,37.9,31.0,27.3,0000.0,0008.63,0005.54,0005.22
2022-07-31 21:12:00,,0831.0,4.99,0.00,29.2,26.9,00.0,37.9,31.0,28.1,0000.0,0008.54,0005.48,0005.17
2022-07-31 21:13:00,,0831.0,5.00,0.00,29.1,26.8,00.0,37.9,30.8,29.2,0000.0,0008.20,0005.42,0005.15
2022-07-31 21:14:00,,0831.0,4.99,0.00,29.1,26.9,00.0,37.9,30.8,30.2,0000.0,0007.81,0005.42,0005.13
2022-07-31 21:15:00,,0831.1,5.01,0.00,29.0,27.1,00.0,37.8,30.8,30.0,0000.0,0007.83,0005.43,0005.12
2022-07-31 21:16:00,,0831.1,4.99,0.00,29.1,27.3,00.0,37.8,30.9,30.4,0000.0,0007.88,0005.40,0005.12
2022-07-31 21:17:00,,0831.1,5.01,0.00,29.1,27.5,00.0,37.9,31.0,29.7,0000.0,0007.95,0005.39,0005.10
2022-07-31 21:18:00,,0831.1,5.00,0.00,29.1,27.7,00.0,37.9,31.1,28.8,0000.0,0007.97,0005.37,0005.08
2022-07-31 21:19:00,,0831.0,5.01,0.00,29.1,27.9,00.0,37.9,31.1,29.0,0000.0,0007.95,0005.36,0005.05
2022-07-31 21:20:00,,0831.0,5.00,0.00,29.2,28.0,00.0,37.9,31.2,28.7,0000.0,0007.85,0005.32,0005.04
2022-07-31 21:21:00,,0831.0,5.00,0.00,29.2,28.1,00.0,37.9,31.2,28.8,0000.0,0007.68,0005.29,0005.04
2022-07-31 21:22:00,,0831.0,5.01,0.00,29.3,28.3,00.0,37.9,31.3,28.4,0000.0,0007.66,0005.27,0005.02
2022-07-31 21:23:00,,0831.0,5.00,0.00,29.3,28.2,00.0,38.0,31.3,28.8,0000.0,0007.79,0005.29,0005.02
2022-07-31 21:24:00,,0831.0,5.00,0.00,29.3,27.5,00.0,37.9,31.1,28.5,0000.0,0008.50,0005.31,0005.01
2022-07-31 21:25:00,,0831.0,5.00,0.00,29.2,26.9,00.0,37.9,30.9,28.1,0000.0,0008.53,0005.30,0004.99
2022-07-31 21:26:00,,0831.0,4.99,0.00,29.2,26.8,00.0,37.9,30.9,28.2,0000.0,0008.53,0005.24,0004.96
2022-07-31 21:27:00,,0831.0,5.01,0.00,29.1,26.9,00.0,37.9,30.8,27.0,0000.0,0008.67,0005.26,0004.96
2022-07-31 21:28:00,,0831.0,4.99,0.00,29.1,27.0,00.0,37.9,30.8,28.6,0000.0,0008.76,0005.31,0004.97
2022-07-31 21:29:00,,0831.0,4.99,0.00,29.1,27.2,00.0,37.9,30.9,27.9,0000.0,0008.80,0005.35,0004.99
2022-07-31 21:30:00,,0830.9,5.01,0.00,29.1,27.4,00.0,37.9,31.0,23.3,0000.0,0008.88,0005.43,0005.06
2022-07-31 21:31:00,,0830.9,5.00,0.00,29.1,27.6,00.0,37.9,31.0,24.5,0000.0,0008.94,0005.44,0005.08
2022-07-31 21:32:00,,0830.9,4.99,0.00,29.1,27.8,00.0,37.9,31.1,22.6,0000.0,0008.92,0005.41,0005.05
2022-07-31 21:33:00,,0830.9,4.99,0.00,29.2,27.9,00.0,37.9,31.1,23.1,0000.0,0008.84,0005.36,0005.00
2022-07-31 21:34:00,,0830.9,5.01,0.00,29.2,28.1,00.0,37.9,31.2,23.2,0000.0,0008.68,0005.31,0004.97
2022-07-31 21:35:00,,0830.9,4.99,0.00,29.2,28.2,00.0,37.9,31.3,24.9,0000.0,0007.92,0005.24,0004.94
2022-07-31 21:36:00,,0830.9,5.00,0.00,29.3,28.3,00.0,38.0,31.3,24.5,0000.0,0007.81,0005.19,0004.91
2022-07-31 21:37:00,,0830.9,5.00,0.00,29.3,27.8,00.0,37.9,31.2,21.9,0000.0,0007.97,0005.21,0004.92
2022-07-31 21:38:00,,0830.9,5.00,0.00,29.2,27.1,00.0,37.9,31.0,22.7,0000.0,0007.94,0005.19,0004.93
2022-07-31 21:39:00,,0830.9,4.99,0.00,29.2,26.9,00.0,37.9,31.0,21.6,0000.0,0007.81,0005.18,0004.95
2022-07-31 21:40:00,,0830.9,5.01,0.00,29.1,26.9,00.0,37.9,30.9,22.5,0000.0,0007.71,0005.15,0004.96
2022-07-31 21:41:00,,0831.0,5.01,0.00,29.1,27.0,00.0,37.9,30.9,21.9,0000.0,0007.65,0005.10,0004.93
2022-07-31 21:42:00,,0830.9,4.99,0.00,29.1,27.2,00.0,37.9,30.9,22.3,0000.0,0007.61,0005.12,0004.94
2022-07-31 21:43:00,,0830.9,5.00,0.00,29.1,27.4,00.0,37.9,31.0,22.2,0000.0,0007.65,0005.16,0004.98
2022-07-31 21:44:00,,0831.0,5.00,0.00,29.1,27.6,00.0,37.9,31.0,23.7,0000.0,0007.72,0005.24,0005.06
2022-07-31 21:45:00,,0830.9,5.01,0.00,29.1,27.8,00.0,37.9,31.1,24.4,0000.0,0007.78,0005.28,0005.11
2022-07-31 21:46:00,,0830.9,4.99,0.00,29.2,27.9,00.0,37.9,31.2,25.1,0000.0,0007.84,0005.32,0005.15
2022-07-31 21:47:00,,0830.9,5.01,0.00,29.2,28.1,00.0,37.9,31.2,24.4,0000.0,0007.89,0005.35,0005.17
2022-07-31 21:48:00,,0830.8,4.99,0.00,29.2,28.2,00.0,37.9,31.2,23.9,0000.0,0007.66,0005.33,0005.15
2022-07-31 21:49:00,,0830.8,4.99,0.00,29.3,28.3,00.0,38.0,31.3,24.9,0000.0,0007.47,0005.30,0005.12
2022-07-31 21:50:00,,0830.8,5.01,0.00,29.3,28.1,00.0,38.0,31.3,24.8,0000.0,0007.44,0005.26,0005.07
2022-07-31 21:51:00,,0830.9,5.00,0.00,29.3,27.3,00.0,37.9,31.1,24.4,0000.0,0007.43,0005.24,0005.04
2022-07-31 21:52:00,,0830.8,5.00,0.00,29.2,26.9,00.0,37.9,31.0,24.3,0000.0,0007.45,0005.21,0005.00
2022-07-31 21:53:00,,0830.9,5.01,0.00,29.2,26.9,00.0,37.9,30.9,23.2,0000.0,0007.46,0005.20,0004.98
2022-07-31 21:54:00,,0830.9,4.99,0.00,29.1,27.0,00.0,37.9,30.9,24.5,0000.0,0007.47,0005.18,0004.96
2022-07-31 21:55:00,,0830.9,5.00,0.00,29.1,27.2,00.0,37.9,30.9,24.7,0000.0,0007.57,0005.18,0004.93
2022-07-31 21:56:00,,0830.9,5.00,0.00,29.1,27.4,00.0,37.9,31.0,24.6,0000.0,0007.62,0005.18,0004.91
2022-07-31 21:57:00,,0830.9,5.00,0.00,29.1,27.6,00.0,37.9,31.0,26.1,0000.0,0007.65,0005.22,0004.95
2022-07-31 21:58:00,,0830.8,5.00,0.00,29.2,27.8,00.0,37.9,31.1,26.1,0000.0,0007.73,0005.29,0005.01
2022-07-31 21:59:00,,0830.8,5.01,0.00,29.2,27.9,00.0,37.9,31.2,26.7,0000.0,0007.75,0005.34,0005.08
